Weather in Avneporog

Russia / Republic of Karelia     65°00′28″N   33°45′07″E
temp.,
°C
wind,
m/s
gust,
m/s
humid.,
%
clouds,
%
prec.,
mm/h
press.,
hPa
HPBL,
m
5 august, thu
thu500:00+9wnw61292100 0.6 10091302
03:00+9w51292100 1.1 1011634
06:00+9w3993100 0.0 1013305
09:00+11w3684100 0.0 1015323
12:00+16w3452100 0.0 10161092
15:00+16wsw3555100 0.0 10171182
18:00+17sw2458100 0.0 1017606
21:00+12sw227598 0.1 101814
6 august, fri
fri600:00+10ssw227988 0.0 101914
03:00+9sw228227 0.0 101917
06:00+11sw227714 0.0 102058
09:00+16sw125668 0.0 1020375
12:00+19wsw114357 0.0 10211518
15:00+19sse214698 0.0 10201445
18:00+16sse2464100 0.0 1020176
21:00+14sse2371100 0.0 102160
7 august, sat
sat700:00+13se2267100 0.0 102232
03:00+11sse226776 0.0 102216
06:00+13se126612 0.0 102352
09:00+17ese34555 0.0 1023482
12:00+20ese34394 0.0 10221951
15:00+20ese55370 0.0 10221841
18:00+18e46460 0.0 10211081
21:00+13ene38740 0.0 1021212
8 august, sun
sun800:00+11ene38811 0.0 1021165
03:00+10ene37873 0.0 1021142
06:00+11ene398052 0.0 1021245
09:00+16e51153100 0.0 1021719
12:00+19ese6941100 0.0 10201268
15:00+19e6840100 0.0 10201412
18:00+16ene4757100 0.0 1019366
21:00+13ene41268100 0.0 1020319
9 august, mon
mon900:00+11ene2678100 0.0 1020112
03:00+11ene3878100 0.0 1020156
06:00+12ene2876100 0.0 1020223
09:00+17e485699 0.0 1020498
12:00+20e584595 0.0 10201139
15:00+20e564574 0.0 10201342
18:00+18e465467 0.0 1019604
21:00+12ene37785 0.0 1019161